Zanesville, OH

8:40 AM EST on December 16, 2017 (GMT -0500)
Zanesville Municipal

Weather History for KZZV - July, 2013

Change the Weather History Date:

Thursday, July 11, 2013

  Actual Average Record
Temperature  
Mean Temperature 70 °F 73 °F  
Max Temperature 78 °F 84 °F 101 °F (1936)
Min Temperature 61 °F 62 °F 45 °F (1945)
Degree Days  
Heating Degree Days 0 0  
Month to date heating degree days 0 0  
Since 1 June heating degree days 18 32  
Since 1 July heating degree days 0 0  
Cooling Degree Days 5 8  
Month to date cooling degree days 112 88  
Year to date cooling degree days 376 300  
Since 1 June cooling degree days 268 246  
Growing Degree Days 20 (Base 50)    
Moisture  
Dew Point 62 °F    
Average Humidity 73    
Maximum Humidity 93    
Minimum Humidity 53    
Precipitation  
Precipitation 0.00 in 0.14 in 2.63 in (1976)
Month to date precipitation 3.25 1.51  
Year to date precipitation 20.09 21.01  
Sea Level Pressure  
Sea Level Pressure 29.98 in    
Wind  
Wind Speed 4 mph (North)    
Max Wind Speed 10 mph    
Max Gust Speed 24 mph    
Visibility 8 miles    
Events Fog    
T = Trace of Precipitation, MM = Missing Value Source: NWS Daily Summary

Daily Weather History Graph

Daily Weather History Graph

Search for Another Location

Airport or City:

Trip Planner

Search our weather history database for the weather conditions in past years. The results will help you decide how hot, cold, wet, or windy it might be!

Date:

Astronomy

Jul. 11, 2013 Rise Set
Actual Time 6:08 AM EDT 8:57 PM EDT
Civil Twilight 5:36 AM EDT 9:29 PM EDT
Nautical Twilight 4:56 AM EDT 10:09 PM EDT
Astronomical Twilight 4:10 AM EDT 10:55 PM EDT
Moon 9:25 AM EDT (7/11) 10:37 PM EDT (7/11)
Length of Visible Light 15h 52m
Length of Day
14h 48m
Waxing Crescent, 10% of the Moon is Illuminated
Jul 11
Waxing Crescent
Jul 15
First Quarter
Jul 22
Full
Jul 29
Last Quarter
Aug 6
New

Hourly Weather History & Observations

Time (EDT) Temp. Dew Point Humidity Pressure Visibility Wind Dir Wind Speed Gust Speed Precip Events Conditions
12:41 AM 66.2 °F 62.6 °F 88% 29.96 in 10.0 mi Calm Calm - N/A   Mostly Cloudy
12:53 AM 66.0 °F 63.0 °F 90% 29.94 in 10.0 mi WSW 4.6 mph - N/A   Overcast
1:20 AM 66.2 °F 62.6 °F 88% 29.96 in 10.0 mi WSW 4.6 mph - N/A   Overcast
1:53 AM 66.0 °F 63.0 °F 90% 29.94 in 10.0 mi WSW 3.5 mph - N/A   Overcast
2:53 AM 66.0 °F 63.0 °F 90% 29.93 in 8.0 mi West 3.5 mph - N/A   Overcast
3:53 AM 66.0 °F 64.0 °F 93% 29.94 in 8.0 mi Calm Calm - N/A   Overcast
4:53 AM 66.0 °F 63.0 °F 90% 29.94 in 8.0 mi Calm Calm - N/A   Partly Cloudy
5:12 AM 66.2 °F 62.6 °F 88% 29.96 in 7.0 mi Calm Calm - N/A   Partly Cloudy
5:33 AM 64.4 °F 62.6 °F 94% 29.96 in 5.0 mi Calm Calm - N/A   Mostly Cloudy
5:50 AM 64.4 °F 62.6 °F 94% 29.97 in 1.2 mi SSE 3.5 mph - N/A   Mostly Cloudy
5:53 AM 64.0 °F 62.1 °F 93% 29.96 in 0.5 mi South 3.5 mph - N/A Fog Fog
6:10 AM 64.4 °F 62.6 °F 94% 29.98 in 1.5 mi SW 3.5 mph - N/A   Overcast
6:18 AM 64.4 °F 62.6 °F 94% 29.98 in 2.0 mi Calm Calm - N/A   Overcast
6:33 AM 64.4 °F 62.6 °F 94% 29.98 in 3.0 mi Calm Calm - N/A   Overcast
6:43 AM 64.4 °F 62.6 °F 94% 29.98 in 2.0 mi Calm Calm - N/A   Overcast
6:53 AM 66.0 °F 63.0 °F 90% 29.97 in 3.0 mi Calm Calm - N/A   Overcast
7:12 AM 66.2 °F 64.4 °F 94% 29.99 in 5.0 mi Calm Calm - N/A   Overcast
7:50 AM 66.2 °F 64.4 °F 94% 29.99 in 6.0 mi Calm Calm - N/A   Overcast
7:53 AM 66.9 °F 64.0 °F 90% 29.98 in 6.0 mi Calm Calm - N/A   Overcast
8:53 AM 69.1 °F 64.9 °F 87% 29.99 in 10.0 mi Calm Calm - N/A   Overcast
9:00 AM 69.8 °F 64.4 °F 83% 30.00 in 10.0 mi North 3.5 mph - N/A   Overcast
9:09 AM 69.8 °F 64.4 °F 83% 30.00 in 9.0 mi Calm Calm - N/A   Overcast
9:53 AM 70.0 °F 64.9 °F 84% 29.99 in 7.0 mi ENE 4.6 mph - N/A   Overcast
10:06 AM 71.6 °F 64.4 °F 78% 30.01 in 10.0 mi NE 5.8 mph - N/A   Overcast
10:22 AM 71.6 °F 64.4 °F 78% 30.01 in 10.0 mi ENE 5.8 mph - N/A   Overcast
10:53 AM 73.0 °F 63.0 °F 71% 30.00 in 10.0 mi NE 6.9 mph - N/A   Mostly Cloudy
11:53 AM 73.9 °F 61.0 °F 64% 30.00 in 10.0 mi NE 8.1 mph - N/A   Overcast
12:41 PM 75.2 °F 60.8 °F 61% 30.02 in 10.0 mi NE 8.1 mph - N/A   Mostly Cloudy
12:53 PM 75.0 °F 61.0 °F 62% 30.00 in 10.0 mi NNE 6.9 mph - N/A   Overcast
1:53 PM 75.9 °F 61.0 °F 60% 29.99 in 10.0 mi ENE 5.8 mph - N/A   Overcast
2:53 PM 73.0 °F 62.1 °F 68% 30.00 in 10.0 mi North 4.6 mph - N/A   Overcast
3:53 PM 75.9 °F 61.0 °F 60% 29.99 in 10.0 mi North 6.9 mph - N/A   Overcast
4:53 PM 75.9 °F 60.1 °F 58% 29.97 in 10.0 mi Variable 4.6 mph - N/A   Mostly Cloudy
5:53 PM 75.0 °F 61.0 °F 62% 29.97 in 10.0 mi North 6.9 mph - N/A   Mostly Cloudy
6:53 PM 75.0 °F 57.9 °F 55% 29.98 in 10.0 mi North 6.9 mph 17.3 mph N/A   Scattered Clouds
7:53 PM 73.0 °F 55.0 °F 53% 29.99 in 10.0 mi North 6.9 mph - N/A   Scattered Clouds
8:53 PM 69.1 °F 55.9 °F 63% 29.99 in 10.0 mi NNW 4.6 mph - N/A   Clear
9:53 PM 66.9 °F 55.0 °F 66% 30.00 in 10.0 mi North 4.6 mph - N/A   Clear
10:53 PM 64.9 °F 55.0 °F 70% 30.01 in 10.0 mi NNW 3.5 mph - N/A   Clear
11:53 PM 63.0 °F 55.0 °F 75% 30.01 in 10.0 mi NNW 3.5 mph - N/A   Clear